Weather in Phanes

Greece     36°21′03″N   27°58′50″E
temp.,
°C
wind,
m/s
gust,
m/s
humid.,
%
clouds,
%
prec.,
mm/h
press.,
hPa
HPBL,
m
29 july, thu
thu2900:00+26n11400 0.0 100711
03:00+26nnw22410 0.0 100715
06:00+26nw22340 0.0 100615
09:00+34nnw25200 0.0 1006484
12:00+37n22170 0.0 10061145
15:00+39wnw33140 0.0 10041632
18:00+37w56200 0.0 1003642
21:00+27w22540 0.0 100427
30 july, fri
fri3000:00+26ene11570 0.0 100518
03:00+26n22410 0.0 100414
06:00+26nw22350 0.0 100413
09:00+34nnw24160 0.0 1005444
12:00+37n34140 0.0 10041243
15:00+40wnw45120 0.0 10031884
18:00+36w67200 0.0 1002500
21:00+28w23460 0.0 100338
31 july, sat
sat3100:00+27nne22580 0.0 100320
03:00+28nne11310 0.0 100316
06:00+27nnw22290 0.0 100315
09:00+36nne24170 0.0 1004465
12:00+39nne35140 0.0 10041687
15:00+41nw45120 0.0 10032320
18:00+38w56150 0.0 1002640
21:00+29w11400 0.0 100333
1 august, sun
sun100:00+27n33510 0.0 100434
03:00+29nw22300 0.0 100420
06:00+28nw32330 0.0 100431
09:00+34nnw49200 0.0 1005399
12:00+39nnw67110 0.0 10051403
15:00+40nw57110 0.0 10031706
18:00+36wnw610230 0.0 1003444
21:00+27w34480 0.0 100458
2 august, mon
mon200:00+27nw33440 0.0 100539
03:00+28wnw34360 0.0 100462
06:00+27nw411400 0.0 1004148
09:00+33nnw49240 0.0 1004471
12:00+38nnw55150 0.0 1004995
15:00+41nw35120 0.0 10042006
18:00+38wsw45170 0.0 1003850
21:00+29w22350 0.0 100421